Regional Weather Roundup
Issued by NWS

Home | Current Version | Previous Version | Graphics & Text | Print | Product List | Glossary On
Versions: 1 2 3 4 5 6 7 8 9 10 11 12 13 14 15 16 17 18 19 20 21 22 23 24 25 26 27 28 29 30 31 32 33 34 35 36 37 38 39 40 41 42 43 44 45 46 47 48 49 50
000
ASUS43 KBIS 050010
RWRND

NORTH DAKOTA REGIONAL WEATHER ROUNDUP
NATIONAL WEATHER SERVICE BISMARCK ND
700 PM CDT SAT JUL 04 2015

NOTE: "FAIR" INDICATES FEW OR NO CLOUDS BELOW 12,000 FEET WITH NO
SIGNIFICANT WEATHER AND/OR OBSTRUCTIONS TO VISIBILITY.


NDZ001>003-009>011-017-050100-
NORTHWEST NORTH DAKOTA

CITY           SKY/WX    TMP DP  RH WIND       PRES   REMARKS
WILLISTON      PTSUNNY   82  66  58 N8        29.70R
6HR MIN TEMP:  71; 6HR MAX TEMP:  98; 6HR PCP:  0.26;

MINOT          CLOUDY    78  71  79 VRB3      29.66F
MINOT AFB      CLOUDY    76  76 100 SE12      29.63F
$$

NDZ018>021-031>035-040>046-050100-
SOUTHWEST NORTH DAKOTA

CITY           SKY/WX    TMP DP  RH WIND       PRES   REMARKS
BISMARCK       PTSUNNY   84  72  67 S9        29.72S
6HR MIN TEMP:  83; 6HR MAX TEMP:  90;

DICKINSON      CLOUDY    81  69  67 S9        29.72F
GARRISON         N/A     79  70  74 S6        29.69F
6HR MIN TEMP:  79; 6HR MAX TEMP:  87;

HETTINGER ARPT PTSUNNY   88  64  44 E6        29.77R
$$

NDZ004>008-012>016-024-026-027-054-050100-
NORTHEAST NORTH DAKOTA

CITY           SKY/WX    TMP DP  RH WIND       PRES   REMARKS
GRAND FORKS    SUNNY     83  68  60 S17       29.70F
GRND FRKS AFB  SUNNY     83  68  60 S14       29.70F
DEVILS LAKE    MOSUNNY   84  64  51 S14       29.68F
$$

NDZ022-023-025-028>030-036>039-047>053-050100-
SOUTHEAST NORTH DAKOTA

CITY           SKY/WX    TMP DP  RH WIND       PRES   REMARKS
FARGO          SUNNY     83  64  52 S17G25    29.74F
6HR MIN TEMP:  82; 6HR MAX TEMP:  85;

JAMESTOWN      MOSUNNY   82  69  64 S12       29.73F
$$



USA.gov is the U.S. government's official web portal to all federal, state and local government web resources and services.